This is the latest recevied weather packets stored in our database for station/object KF5WOE-13. If no packets are shown the sender has not sent any weather packets the latest 1 day(s).
| Time | Temp. | Humidity | Pressure | Rain* | Wind** | Luminosity | Snow |
|---|---|---|---|---|---|---|---|
| 1778048013 | 60° C | - | - | 0 mm | 0 m/s | - | - |
| 1778047712 | 60° C | - | - | 0 mm | 1.79 m/s, 40° | - | - |
| 1778047409 | 60° C | - | - | 0 mm | 4.92 m/s, 5° | - | - |
| 1778047106 | 60° C | - | - | 0 mm | 0.89 m/s, 10° | - | - |
| 1778046803 | 60° C | - | - | 0 mm | 2.24 m/s, 20° | - | - |
| 1778046500 | 60° C | - | - | 0 mm | 3.13 m/s, 14° | - | - |
| 1778046197 | 60° C | - | - | 0 mm | 1.79 m/s, 311° | - | - |
| 1778045893 | 60° C | - | - | 0 mm | 2.24 m/s, 348° | - | - |
| 1778045592 | 60° C | - | - | 0 mm | 1.79 m/s, 12° | - | - |
| 1778045289 | 60° C | - | - | 0 mm | 3.58 m/s, 353° | - | - |
| 1778044988 | 60° C | - | - | 0 mm | 5.36 m/s, 14° | - | - |
| 1778044685 | 60° C | - | - | 0 mm | 3.58 m/s, 26° | - | - |
| 1778044381 | 60° C | - | - | 0 mm | 5.81 m/s, 13° | - | - |
| 1778044079 | 60° C | - | - | 0 mm | 5.81 m/s, 18° | - | - |
| 1778043776 | 60° C | - | - | 0 mm | 4.92 m/s, 12° | - | - |
| 1778043472 | 60° C | - | - | 0 mm | 4.02 m/s, 16° | - | - |
| 1778043170 | 60° C | - | - | 0 mm | 2.24 m/s, 284° | - | - |
| 1778042867 | 60° C | - | - | 0 mm | 2.24 m/s, 1° | - | - |
| 1778042564 | 60° C | - | - | 0 mm | 3.13 m/s, 30° | - | - |
| 1778042262 | 60° C | - | - | 0 mm | 3.58 m/s, 10° | - | - |
| 1778041959 | 60° C | - | - | 0 mm | 3.58 m/s, 16° | - | - |
| 1778041657 | 60° C | - | - | 0 mm | 3.13 m/s, 310° | - | - |
| 1778041355 | 60° C | - | - | 0 mm | 3.58 m/s, 318° | - | - |
| 1778041054 | 60° C | - | - | 0 mm | 3.13 m/s, 354° | - | - |
| 1778040750 | 60° C | - | - | 0 mm | 4.02 m/s, 351° | - | - |
* Rain latest hour (hover to see other rain measurements)
** Current wind speed in m/s (hover to see current wind gust speed)